Back to catalog

SL-16 DEB

LostLEO
NORAD 39845·DEBRIS·🇷🇺 Russia

Launched Dec 25, 1992 from Baikonur Cosmodrome

Loading…

Next Passes (next 24 hours)

TLE

StaleSource: Space-Track

Epoch: Jan 26, 2026, 14:36 UTC

1 39845U 92093KX  26026.60860949  .00002290  00000-0  11884-2 0  9997
2 39845  70.9806   8.2792 0123669 187.3713 172.5595 14.11947005135966

Track SL-16 DEB in real time with AllMySat

Download on the App Store